CPA450 RCTP-RJAA

Flight info

Callsign CPA450
Flight time 2h 30m
Altitude 37000
Route MOLKA M750 MUKEP Y891 AGIMO Y89 GUPER Y81 RUTAS
Aircraft B77W/H-SDE1E2E3FGHIJ2J3J4J5M1RWXY/LB1D1

Departure

Time 2026-05-06 01:49
Airport Taiwan Taoyuan International Airport (RCTP)

Arrival

Time 2026-05-06 04:20
Airport Narita International Airport (RJAA)
Time Latitude Longitude Altitude Speed Heading
2026-05-06 01:27 25.07930 121.23841 94 ft 0 kts 320°
2026-05-06 01:34 25.07929 121.23842 95 ft 2 kts 320°
2026-05-06 01:34 25.07910 121.23860 103 ft 4 kts 320°
2026-05-06 01:34 25.07889 121.23879 104 ft 4 kts 320°
2026-05-06 01:35 25.07871 121.23896 106 ft 3 kts 320°
2026-05-06 01:35 25.07850 121.23912 106 ft 4 kts 338°
2026-05-06 01:35 25.07829 121.23919 107 ft 4 kts
2026-05-06 01:35 25.07810 121.23911 107 ft 4 kts 44°
2026-05-06 01:36 25.07794 121.23889 106 ft 4 kts 58°
2026-05-06 01:36 25.07780 121.23865 104 ft 3 kts 51°
2026-05-06 01:36 25.07777 121.23861 104 ft 2 kts 49°
2026-05-06 01:39 25.07790 121.23877 107 ft 6 kts 49°
2026-05-06 01:40 25.07831 121.23928 108 ft 11 kts 49°
2026-05-06 01:40 25.07888 121.24000 107 ft 13 kts 49°
2026-05-06 01:40 25.07947 121.24076 107 ft 13 kts 49°
2026-05-06 01:40 25.08006 121.24151 107 ft 13 kts 49°
2026-05-06 01:41 25.08064 121.24226 108 ft 9 kts 50°
2026-05-06 01:41 25.08098 121.24270 109 ft 7 kts 49°
2026-05-06 01:41 25.08129 121.24310 107 ft 7 kts 49°
2026-05-06 01:41 25.08139 121.24358 109 ft 7 kts 112°
2026-05-06 01:42 25.08115 121.24405 107 ft 7 kts 130°
2026-05-06 01:42 25.08078 121.24441 108 ft 7 kts 142°
2026-05-06 01:42 25.08044 121.24467 109 ft 5 kts 155°
2026-05-06 01:42 25.08004 121.24460 109 ft 7 kts 208°
2026-05-06 01:43 25.07970 121.24425 110 ft 7 kts 228°
2026-05-06 01:43 25.07926 121.24369 110 ft 14 kts 229°
2026-05-06 01:43 25.07840 121.24259 109 ft 23 kts 229°
2026-05-06 01:43 25.07736 121.24126 107 ft 23 kts 229°
2026-05-06 01:44 25.07631 121.23995 109 ft 23 kts 229°
2026-05-06 01:44 25.07526 121.23863 110 ft 23 kts 230°
2026-05-06 01:44 25.07422 121.23729 110 ft 23 kts 228°
2026-05-06 01:44 25.07318 121.23596 112 ft 23 kts 229°
2026-05-06 01:45 25.07213 121.23463 111 ft 23 kts 229°
2026-05-06 01:45 25.07108 121.23330 112 ft 23 kts 229°
2026-05-06 01:45 25.07004 121.23197 113 ft 23 kts 229°
2026-05-06 01:45 25.06899 121.23065 113 ft 23 kts 229°
2026-05-06 01:46 25.06795 121.22931 114 ft 23 kts 229°
2026-05-06 01:46 25.06692 121.22800 113 ft 23 kts 229°
2026-05-06 01:46 25.06586 121.22666 113 ft 23 kts 229°
2026-05-06 01:46 25.06481 121.22536 114 ft 23 kts 228°
2026-05-06 01:47 25.06417 121.22454 115 ft 9 kts 229°
2026-05-06 01:47 25.06375 121.22415 115 ft 8 kts 199°
2026-05-06 01:47 25.06327 121.22433 116 ft 7 kts 143°
2026-05-06 01:47 25.06287 121.22471 116 ft 7 kts 140°
2026-05-06 01:48 25.06247 121.22508 117 ft 7 kts 140°
2026-05-06 01:48 25.06234 121.22536 118 ft 4 kts 79°
2026-05-06 01:48 25.06248 121.22561 116 ft 2 kts 51°
2026-05-06 01:48 25.06269 121.22588 117 ft 13 kts 50°
2026-05-06 01:49 25.06428 121.22794 113 ft 59 kts 47°
2026-05-06 01:49 25.06812 121.23273 112 ft 113 kts 50°
2026-05-06 01:49 25.07515 121.24138 209 ft 175 kts 47°
2026-05-06 01:49 25.08288 121.25126 770 ft 172 kts 49°
2026-05-06 01:50 25.09084 121.26167 1340 ft 178 kts 49°
2026-05-06 01:50 25.09912 121.27243 1870 ft 188 kts 49°
2026-05-06 01:50 25.10748 121.28347 2506 ft 188 kts 50°
2026-05-06 01:50 25.11605 121.29470 3075 ft 195 kts 48°
2026-05-06 01:51 25.12555 121.30594 3520 ft 207 kts 45°
2026-05-06 01:51 25.13625 121.31800 3796 ft 234 kts 45°
2026-05-06 01:51 25.14833 121.33170 4158 ft 261 kts 45°
2026-05-06 01:51 25.16124 121.34638 4872 ft 276 kts 46°
2026-05-06 01:52 25.17482 121.36200 5634 ft 284 kts 45°
2026-05-06 01:52 25.18865 121.37788 6529 ft 292 kts 44°
2026-05-06 01:52 25.20291 121.39433 7308 ft 301 kts 44°
2026-05-06 01:52 25.21743 121.41123 8153 ft 308 kts 44°
2026-05-06 01:53 25.23232 121.42865 8960 ft 315 kts 44°
2026-05-06 01:53 25.24747 121.44625 9723 ft 324 kts 46°
2026-05-06 01:53 25.26110 121.46659 10484 ft 334 kts 54°
2026-05-06 01:53 25.27397 121.48910 10829 ft 360 kts 57°
2026-05-06 01:54 25.28744 121.51372 11041 ft 388 kts 57°
2026-05-06 01:54 25.30179 121.54013 11387 ft 409 kts 57°
2026-05-06 01:54 25.31674 121.56747 12069 ft 419 kts 57°
2026-05-06 01:54 25.33186 121.59487 12850 ft 426 kts 57°
2026-05-06 01:55 25.34745 121.62287 13727 ft 430 kts 57°
2026-05-06 01:55 25.36327 121.65107 14534 ft 432 kts 56°
2026-05-06 01:55 25.37921 121.67936 15387 ft 434 kts 56°
2026-05-06 01:55 25.39522 121.70772 16232 ft 436 kts 56°
2026-05-06 01:56 25.41137 121.73630 17026 ft 439 kts 56°
2026-05-06 01:56 25.42762 121.76505 17816 ft 443 kts 55°
2026-05-06 01:56 25.44402 121.79409 18561 ft 447 kts 55°
2026-05-06 01:56 25.46055 121.82338 19215 ft 450 kts 55°
2026-05-06 01:57 25.47726 121.85301 19864 ft 455 kts 55°
2026-05-06 01:57 25.49407 121.88284 20524 ft 459 kts 55°
2026-05-06 01:57 25.51103 121.91297 21188 ft 462 kts 55°
2026-05-06 01:57 25.52788 121.94291 21829 ft 466 kts 54°
2026-05-06 01:58 25.54510 121.97355 22460 ft 470 kts 54°
2026-05-06 01:58 25.56244 122.00441 23088 ft 474 kts 54°
2026-05-06 01:58 25.57990 122.03552 23688 ft 478 kts 54°
2026-05-06 01:58 25.59749 122.06686 24176 ft 482 kts 54°
2026-05-06 01:59 25.61527 122.09858 24642 ft 486 kts 54°
2026-05-06 01:59 25.63324 122.13066 25134 ft 490 kts 54°
2026-05-06 01:59 25.65127 122.16286 25616 ft 494 kts 54°
2026-05-06 01:59 25.66944 122.19534 26101 ft 497 kts 54°
2026-05-06 02:00 25.68776 122.22810 26534 ft 501 kts 55°
2026-05-06 02:00 25.70596 122.26069 26961 ft 505 kts 55°
2026-05-06 02:00 25.72457 122.29402 27389 ft 510 kts 55°
2026-05-06 02:00 25.74327 122.32754 27797 ft 514 kts 55°
2026-05-06 02:01 25.76214 122.36138 28199 ft 518 kts 55°
2026-05-06 02:01 25.78117 122.39554 28576 ft 522 kts 55°
2026-05-06 02:01 25.80035 122.43001 28933 ft 525 kts 55°
2026-05-06 02:01 25.81958 122.46458 29285 ft 529 kts 55°
2026-05-06 02:02 25.83893 122.49941 29608 ft 532 kts 55°
2026-05-06 02:02 25.85840 122.53448 30006 ft 533 kts 56°
2026-05-06 02:02 25.87784 122.56952 30457 ft 532 kts 55°
2026-05-06 02:02 25.89718 122.60444 30971 ft 529 kts 55°
2026-05-06 02:03 25.91643 122.63919 31458 ft 527 kts 55°
2026-05-06 02:03 25.93542 122.67351 31894 ft 526 kts 55°
2026-05-06 02:03 25.95457 122.70812 32275 ft 525 kts 55°
2026-05-06 02:03 25.97369 122.74268 32671 ft 525 kts 55°
2026-05-06 02:04 25.99276 122.77720 33089 ft 524 kts 55°
2026-05-06 02:04 26.01186 122.81178 33505 ft 523 kts 55°
2026-05-06 02:04 26.03082 122.84616 33916 ft 521 kts 55°
2026-05-06 02:04 26.04977 122.88054 34262 ft 521 kts 56°
2026-05-06 02:05 26.06869 122.91488 34536 ft 521 kts 56°
2026-05-06 02:05 26.08764 122.94932 34811 ft 521 kts 56°
2026-05-06 02:05 26.10656 122.98371 35097 ft 521 kts 56°
2026-05-06 02:05 26.12549 123.01816 35381 ft 521 kts 56°
2026-05-06 02:06 26.14438 123.05256 35660 ft 521 kts 56°
2026-05-06 02:06 26.16333 123.08709 35937 ft 521 kts 56°
2026-05-06 02:06 26.18197 123.12108 36197 ft 521 kts 56°
2026-05-06 02:06 26.20085 123.15554 36451 ft 521 kts 56°
2026-05-06 02:07 26.21975 123.19008 36698 ft 521 kts 56°
2026-05-06 02:07 26.23867 123.22466 36937 ft 522 kts 56°
2026-05-06 02:07 26.27668 123.29421 37041 ft 527 kts 57°
2026-05-06 02:08 26.31467 123.36384 37038 ft 523 kts 57°
2026-05-06 02:08 26.35234 123.43301 37044 ft 521 kts 57°
2026-05-06 02:09 26.38966 123.50163 37042 ft 520 kts 57°
2026-05-06 02:09 26.42721 123.57076 37043 ft 521 kts 58°
2026-05-06 02:10 26.46484 123.64016 37043 ft 523 kts 58°
2026-05-06 02:10 26.50253 123.70977 37048 ft 524 kts 58°
2026-05-06 02:11 26.54029 123.77963 37041 ft 526 kts 58°
2026-05-06 02:11 26.57788 123.84928 37044 ft 528 kts 58°
2026-05-06 02:12 26.61579 123.91964 37025 ft 529 kts 59°
2026-05-06 02:12 26.65405 123.99011 37032 ft 531 kts 56°
2026-05-06 02:13 26.69900 124.05571 37054 ft 531 kts 49°
2026-05-06 02:13 26.74697 124.11865 37038 ft 532 kts 49°
2026-05-06 02:14 26.79481 124.18200 37030 ft 533 kts 49°
2026-05-06 02:14 26.84209 124.24554 37036 ft 534 kts 50°
2026-05-06 02:15 26.88986 124.30999 37039 ft 535 kts 50°
2026-05-06 02:15 26.93721 124.37389 37035 ft 536 kts 50°
2026-05-06 02:16 26.98481 124.43815 37040 ft 535 kts 50°
2026-05-06 02:16 27.03245 124.50236 37038 ft 534 kts 50°
2026-05-06 02:17 27.07968 124.56602 37040 ft 533 kts 50°
2026-05-06 02:17 27.12706 124.63002 37041 ft 532 kts 51°
2026-05-06 02:18 27.17422 124.69383 37038 ft 531 kts 51°
2026-05-06 02:18 27.22129 124.75763 37037 ft 530 kts 51°
2026-05-06 02:19 27.26834 124.82150 37042 ft 530 kts 51°
2026-05-06 02:19 27.31533 124.88537 37042 ft 531 kts 51°
2026-05-06 02:20 27.37810 124.97083 37042 ft 532 kts 51°
2026-05-06 02:21 27.42538 125.03512 37048 ft 534 kts 51°
2026-05-06 02:21 27.47311 125.09944 37043 ft 535 kts 51°
2026-05-06 02:22 27.52087 125.16381 37041 ft 536 kts 51°
2026-05-06 02:22 27.56873 125.22851 37043 ft 537 kts 52°
2026-05-06 02:23 27.61625 125.29291 37044 ft 538 kts 52°
2026-05-06 02:23 27.66418 125.35799 37043 ft 539 kts 52°
2026-05-06 02:24 27.71215 125.42321 37045 ft 540 kts 53°
2026-05-06 02:24 27.76019 125.48862 37046 ft 541 kts 53°
2026-05-06 02:25 27.80826 125.55417 37049 ft 542 kts 53°
2026-05-06 02:25 27.85641 125.61993 37044 ft 543 kts 53°
2026-05-06 02:26 27.90441 125.68558 37045 ft 545 kts 53°
2026-05-06 02:26 27.95274 125.75179 37049 ft 546 kts 53°
2026-05-06 02:27 28.00110 125.81813 37046 ft 547 kts 53°
2026-05-06 02:27 28.04957 125.88474 37045 ft 548 kts 53°
2026-05-06 02:28 28.09801 125.95141 37043 ft 549 kts 53°
2026-05-06 02:28 28.14663 126.01843 37054 ft 550 kts 53°
2026-05-06 02:29 28.19496 126.08515 37051 ft 551 kts 53°
2026-05-06 02:29 28.24363 126.15246 37050 ft 552 kts 53°
2026-05-06 02:30 28.29230 126.21987 37053 ft 552 kts 54°
2026-05-06 02:30 28.34107 126.28752 37056 ft 553 kts 54°
2026-05-06 02:31 28.38942 126.35470 37056 ft 553 kts 54°
2026-05-06 02:31 28.43808 126.42241 37054 ft 553 kts 54°
2026-05-06 02:32 28.48670 126.49019 37056 ft 552 kts 54°
2026-05-06 02:32 28.53524 126.55796 37056 ft 552 kts 54°
2026-05-06 02:33 28.58365 126.62565 37056 ft 552 kts 54°
2026-05-06 02:33 28.59974 126.64819 37056 ft 552 kts 54°
2026-05-06 02:34 28.68046 126.76137 37054 ft 551 kts 54°
2026-05-06 02:34 28.72844 126.82879 37054 ft 551 kts 54°
2026-05-06 02:35 28.77670 126.89673 37057 ft 551 kts 54°
2026-05-06 02:35 28.82499 126.96480 37055 ft 551 kts 54°
2026-05-06 02:36 28.87314 127.03280 37058 ft 551 kts 54°
2026-05-06 02:36 28.92131 127.10093 37057 ft 551 kts 54°
2026-05-06 02:37 28.96943 127.16911 37058 ft 551 kts 54°
2026-05-06 02:37 29.01726 127.23699 37057 ft 552 kts 54°
2026-05-06 02:38 29.06542 127.30544 37056 ft 553 kts 54°
2026-05-06 02:38 29.11367 127.37413 37059 ft 553 kts 54°
2026-05-06 02:39 29.16197 127.44302 37060 ft 554 kts 54°
2026-05-06 02:39 29.21022 127.51195 37062 ft 555 kts 54°
2026-05-06 02:40 29.25810 127.58047 37059 ft 555 kts 54°
2026-05-06 02:40 29.30637 127.64966 37063 ft 556 kts 54°
2026-05-06 02:41 29.35477 127.71915 37068 ft 557 kts 54°
2026-05-06 02:41 29.40339 127.78910 37390 ft 560 kts 54°
2026-05-06 02:41 29.42765 127.82402 37701 ft 560 kts 54°
2026-05-06 02:42 29.45160 127.85854 37935 ft 560 kts 54°
2026-05-06 02:42 29.47581 127.89348 38160 ft 560 kts 54°
2026-05-06 02:42 29.50008 127.92852 38364 ft 561 kts 53°
2026-05-06 02:42 29.52438 127.96362 38594 ft 561 kts 53°
2026-05-06 02:43 29.54868 127.99875 38781 ft 562 kts 53°
2026-05-06 02:43 29.57305 128.03395 38918 ft 563 kts 53°
2026-05-06 02:43 29.59744 128.06921 38983 ft 564 kts 53°
2026-05-06 02:44 29.64635 128.14001 39064 ft 567 kts 53°
2026-05-06 02:44 29.69547 128.21126 39061 ft 569 kts 53°
2026-05-06 02:45 29.74462 128.28268 39062 ft 570 kts 53°
2026-05-06 02:45 29.79381 128.35431 39062 ft 570 kts 53°
2026-05-06 02:46 29.84302 128.42608 39061 ft 570 kts 53°
2026-05-06 02:46 29.89214 128.49784 39064 ft 569 kts 53°
2026-05-06 02:47 29.94112 128.56954 39063 ft 568 kts 53°
2026-05-06 02:47 29.98997 128.64116 39062 ft 567 kts 53°
2026-05-06 02:48 30.03846 128.71239 39062 ft 566 kts 53°
2026-05-06 02:48 30.08710 128.78396 39061 ft 566 kts 53°
2026-05-06 02:49 30.13577 128.85572 39063 ft 565 kts 53°
2026-05-06 02:49 30.18396 128.92690 39065 ft 565 kts 53°
2026-05-06 02:50 30.23246 128.99864 39066 ft 566 kts 53°
2026-05-06 02:50 30.28092 129.07044 39067 ft 566 kts 53°
2026-05-06 02:51 30.32945 129.14245 39055 ft 567 kts 53°
2026-05-06 02:51 30.37779 129.21434 39049 ft 568 kts 53°
2026-05-06 02:52 30.42638 129.28673 39067 ft 569 kts 53°
2026-05-06 02:52 30.47424 129.35816 39074 ft 570 kts 53°
2026-05-06 02:53 30.52295 129.43100 39056 ft 571 kts 53°
2026-05-06 02:53 30.57168 129.50399 39067 ft 572 kts 53°
2026-05-06 02:54 30.62039 129.57709 39069 ft 573 kts 52°
2026-05-06 02:54 30.66918 129.65046 39068 ft 574 kts 52°
2026-05-06 02:55 30.71770 129.72354 39077 ft 575 kts 52°
2026-05-06 02:55 30.76584 129.79620 39080 ft 576 kts 52°
2026-05-06 02:56 30.81470 129.87008 39081 ft 576 kts 52°
2026-05-06 02:56 30.86185 129.94538 39086 ft 575 kts 58°
2026-05-06 02:57 30.90389 130.02433 39097 ft 573 kts 59°
2026-05-06 02:57 30.94520 130.10376 39096 ft 573 kts 59°
2026-05-06 02:58 30.98678 130.18295 39099 ft 572 kts 59°
2026-05-06 02:58 31.02852 130.26181 39106 ft 571 kts 59°
2026-05-06 02:59 31.06997 130.34016 39099 ft 570 kts 59°
2026-05-06 02:59 31.11159 130.41908 39103 ft 570 kts 59°
2026-05-06 03:00 31.15306 130.49794 39111 ft 570 kts 59°
2026-05-06 03:00 31.19458 130.57706 39111 ft 571 kts 59°
2026-05-06 03:01 31.23610 130.65634 39111 ft 572 kts 59°
2026-05-06 03:01 31.27757 130.73570 39108 ft 572 kts 59°
2026-05-06 03:02 31.31876 130.81466 39118 ft 572 kts 59°
2026-05-06 03:02 31.36020 130.89428 39111 ft 573 kts 59°
2026-05-06 03:03 31.40160 130.97398 39114 ft 573 kts 59°
2026-05-06 03:03 31.44299 131.05383 39114 ft 572 kts 59°
2026-05-06 03:04 31.47732 131.12019 39122 ft 572 kts 59°
2026-05-06 03:04 31.52534 131.21321 39127 ft 574 kts 59°
2026-05-06 03:05 31.55995 131.28041 39135 ft 574 kts 59°
2026-05-06 03:05 31.60095 131.36012 39133 ft 574 kts 59°
2026-05-06 03:06 31.64212 131.44042 39136 ft 573 kts 59°
2026-05-06 03:06 31.68314 131.52064 39148 ft 571 kts 60°
2026-05-06 03:07 31.72400 131.60074 39147 ft 570 kts 60°
2026-05-06 03:07 31.76470 131.68071 39144 ft 570 kts 60°
2026-05-06 03:08 31.80539 131.76081 39137 ft 571 kts 60°
2026-05-06 03:08 31.84605 131.84102 39134 ft 572 kts 60°
2026-05-06 03:09 31.88648 131.92094 39132 ft 573 kts 59°
2026-05-06 03:09 31.92724 132.00168 39136 ft 575 kts 60°
2026-05-06 03:10 31.96805 132.08271 39131 ft 576 kts 59°
2026-05-06 03:10 32.00889 132.16397 39128 ft 577 kts 60°
2026-05-06 03:11 32.04983 132.24561 39127 ft 577 kts 60°
2026-05-06 03:11 32.09065 132.32720 39131 ft 577 kts 60°
2026-05-06 03:12 32.13077 132.40852 39124 ft 577 kts 63°
2026-05-06 03:12 32.16726 132.49298 39133 ft 576 kts 65°
2026-05-06 03:13 32.20253 132.57781 39127 ft 575 kts 65°
2026-05-06 03:13 32.23800 132.66267 39128 ft 575 kts 65°
2026-05-06 03:14 32.27345 132.74677 39131 ft 574 kts 64°
2026-05-06 03:14 32.30906 132.83122 39129 ft 574 kts 65°
2026-05-06 03:15 32.34458 132.91574 39132 ft 573 kts 65°
2026-05-06 03:15 32.38000 133.00032 39132 ft 573 kts 65°
2026-05-06 03:16 32.41527 133.08476 39135 ft 572 kts 65°
2026-05-06 03:16 32.45055 133.16941 39135 ft 573 kts 65°
2026-05-06 03:17 32.48573 133.25400 39134 ft 573 kts 65°
2026-05-06 03:17 32.52073 133.33838 39139 ft 574 kts 65°
2026-05-06 03:18 32.55590 133.42336 39142 ft 575 kts 65°
2026-05-06 03:18 32.59123 133.50843 39141 ft 576 kts 65°
2026-05-06 03:19 32.62681 133.59365 39135 ft 577 kts 65°
2026-05-06 03:19 32.66214 133.67925 39136 ft 577 kts 65°
2026-05-06 03:20 32.71464 133.80832 39138 ft 579 kts 65°
2026-05-06 03:20 32.74964 133.89445 39140 ft 579 kts 65°
2026-05-06 03:21 32.78446 133.98021 39138 ft 580 kts 65°
2026-05-06 03:21 32.81885 134.06687 39144 ft 579 kts 69°
2026-05-06 03:22 32.84460 134.15717 39145 ft 575 kts 77°
2026-05-06 03:22 32.86647 134.24868 39154 ft 575 kts 77°
2026-05-06 03:23 32.88863 134.34029 39145 ft 576 kts 77°
2026-05-06 03:23 32.91118 134.43129 39149 ft 576 kts 77°
2026-05-06 03:24 32.93392 134.52283 39154 ft 576 kts 77°
2026-05-06 03:24 32.95652 134.61450 39152 ft 576 kts 77°
2026-05-06 03:25 32.97893 134.70582 39153 ft 576 kts 77°
2026-05-06 03:25 33.00032 134.79781 39158 ft 574 kts 82°
2026-05-06 03:26 33.01218 134.89135 39162 ft 569 kts 88°
2026-05-06 03:26 33.02143 134.98532 39157 ft 570 kts 88°
2026-05-06 03:27 33.03140 135.07907 39155 ft 571 kts 87°
2026-05-06 03:27 33.04169 135.17293 39162 ft 572 kts 87°
2026-05-06 03:28 33.05174 135.26707 39154 ft 573 kts 88°
2026-05-06 03:28 33.06165 135.36129 39159 ft 573 kts 88°
2026-05-06 03:29 33.07152 135.45555 39161 ft 573 kts 88°
2026-05-06 03:29 33.08134 135.54992 39166 ft 574 kts 87°
2026-05-06 03:30 33.09107 135.64396 39160 ft 575 kts 88°
2026-05-06 03:30 33.10074 135.73860 39163 ft 574 kts 88°
2026-05-06 03:31 33.11031 135.83309 39162 ft 574 kts 88°
2026-05-06 03:31 33.11982 135.92766 39172 ft 573 kts 88°
2026-05-06 03:32 33.12925 136.02207 39167 ft 572 kts 88°
2026-05-06 03:32 33.14124 136.11599 39168 ft 576 kts 79°
2026-05-06 03:33 33.16243 136.20773 39178 ft 576 kts 73°
2026-05-06 03:33 33.19092 136.29732 39177 ft 577 kts 69°
2026-05-06 03:34 33.22128 136.38607 39177 ft 577 kts 68°
2026-05-06 03:34 33.25139 136.47505 39178 ft 578 kts 69°
2026-05-06 03:35 33.28107 136.56455 39179 ft 578 kts 69°
2026-05-06 03:35 33.31047 136.65410 39178 ft 579 kts 69°
2026-05-06 03:36 33.33989 136.74391 39177 ft 580 kts 69°
2026-05-06 03:36 33.36929 136.83376 39178 ft 580 kts 69°
2026-05-06 03:37 33.39847 136.92311 39187 ft 580 kts 69°
2026-05-06 03:37 33.42776 137.01306 39183 ft 580 kts 69°
2026-05-06 03:38 33.45701 137.10318 39183 ft 580 kts 69°
2026-05-06 03:38 33.48620 137.19338 39184 ft 580 kts 69°
2026-05-06 03:39 33.51526 137.28344 39184 ft 580 kts 69°
2026-05-06 03:39 33.54430 137.37369 39185 ft 580 kts 69°
2026-05-06 03:40 33.57325 137.46395 39185 ft 579 kts 69°
2026-05-06 03:40 33.60213 137.55424 39184 ft 579 kts 69°
2026-05-06 03:41 33.63072 137.64389 39189 ft 579 kts 69°
2026-05-06 03:41 33.65944 137.73418 39188 ft 579 kts 69°
2026-05-06 03:42 33.68814 137.82472 39189 ft 579 kts 69°
2026-05-06 03:42 33.71675 137.91522 39187 ft 579 kts 69°
2026-05-06 03:43 33.74527 138.00571 39188 ft 579 kts 69°
2026-05-06 03:43 33.77379 138.09646 39190 ft 579 kts 69°
2026-05-06 03:44 33.80224 138.18726 39188 ft 580 kts 69°
2026-05-06 03:44 33.83041 138.27746 39190 ft 580 kts 69°
2026-05-06 03:45 33.85874 138.36844 39189 ft 579 kts 69°
2026-05-06 03:45 33.88695 138.45929 39194 ft 579 kts 69°
2026-05-06 03:46 33.91507 138.55015 39192 ft 579 kts 69°
2026-05-06 03:46 33.94317 138.64119 39193 ft 579 kts 69°
2026-05-06 03:47 33.97117 138.73220 39191 ft 580 kts 69°
2026-05-06 03:47 33.99910 138.82327 39188 ft 580 kts 69°
2026-05-06 03:48 34.02701 138.91454 39189 ft 580 kts 69°
2026-05-06 03:48 34.05016 138.99046 39189 ft 580 kts 69°
2026-05-06 03:49 34.07793 139.08178 39191 ft 580 kts 69°
2026-05-06 03:49 34.11015 139.18811 39185 ft 580 kts 69°
2026-05-06 03:50 34.13330 139.26474 39186 ft 580 kts 69°
2026-05-06 03:50 34.16086 139.35622 39186 ft 580 kts 69°
2026-05-06 03:51 34.18808 139.44688 38997 ft 571 kts 69°
2026-05-06 03:51 34.20154 139.49183 38528 ft 567 kts 69°
2026-05-06 03:51 34.21500 139.53682 37758 ft 570 kts 69°
2026-05-06 03:52 34.22848 139.58188 36957 ft 573 kts 69°
2026-05-06 03:52 34.24200 139.62719 36223 ft 574 kts 70°
2026-05-06 03:52 34.25556 139.67274 35542 ft 574 kts 70°
2026-05-06 03:52 34.26907 139.71819 34893 ft 573 kts 70°
2026-05-06 03:53 34.28252 139.76353 34269 ft 571 kts 70°
2026-05-06 03:53 34.29591 139.80872 33528 ft 570 kts 71°
2026-05-06 03:53 34.31021 139.85343 32724 ft 571 kts 66°
2026-05-06 03:53 34.32728 139.89608 31912 ft 571 kts 60°
2026-05-06 03:54 34.34796 139.93709 31081 ft 570 kts 56°
2026-05-06 03:54 34.36957 139.97742 30242 ft 571 kts 56°
2026-05-06 03:54 34.39115 140.01777 29332 ft 570 kts 56°
2026-05-06 03:54 34.41235 140.05817 28702 ft 563 kts 57°
2026-05-06 03:55 34.43297 140.09814 28192 ft 555 kts 57°
2026-05-06 03:55 34.45327 140.13774 27666 ft 548 kts 58°
2026-05-06 03:55 34.47329 140.17674 27114 ft 542 kts 57°
2026-05-06 03:55 34.49323 140.21535 26534 ft 537 kts 57°
2026-05-06 03:56 34.51275 140.25305 25970 ft 533 kts 57°
2026-05-06 03:56 34.53242 140.29087 25424 ft 528 kts 56°
2026-05-06 03:56 34.55431 140.32612 24881 ft 522 kts 47°
2026-05-06 03:56 34.57981 140.35722 24363 ft 515 kts 39°
2026-05-06 03:57 34.60734 140.38455 23855 ft 507 kts 33°
2026-05-06 03:57 34.63641 140.40833 23240 ft 500 kts 27°
2026-05-06 03:57 34.66659 140.42886 22691 ft 492 kts 22°
2026-05-06 03:57 34.69746 140.44573 22177 ft 481 kts 16°
2026-05-06 03:58 34.72856 140.45990 21664 ft 474 kts 14°
2026-05-06 03:58 34.75948 140.47332 21133 ft 469 kts 14°
2026-05-06 03:58 34.78979 140.48627 20637 ft 463 kts 14°
2026-05-06 03:58 34.82002 140.49930 20136 ft 459 kts 14°
2026-05-06 03:59 34.84995 140.51237 19642 ft 454 kts 14°
2026-05-06 03:59 34.87951 140.52541 19151 ft 450 kts 14°
2026-05-06 03:59 34.90888 140.53846 18660 ft 447 kts 14°
2026-05-06 03:59 34.93793 140.55142 18132 ft 443 kts 15°
2026-05-06 04:00 34.96669 140.56428 17594 ft 438 kts 15°
2026-05-06 04:00 34.99530 140.57709 17055 ft 435 kts 15°
2026-05-06 04:00 35.02337 140.58966 16536 ft 431 kts 15°
2026-05-06 04:00 35.05137 140.60220 16031 ft 427 kts 15°
2026-05-06 04:01 35.07918 140.61467 15547 ft 423 kts 15°
2026-05-06 04:01 35.10666 140.62699 15060 ft 419 kts 15°
2026-05-06 04:01 35.13391 140.63922 14571 ft 416 kts 16°
2026-05-06 04:01 35.16095 140.65137 14107 ft 412 kts 16°
2026-05-06 04:02 35.18770 140.66339 13683 ft 407 kts 16°
2026-05-06 04:02 35.21409 140.67525 13292 ft 401 kts 17°
2026-05-06 04:02 35.23975 140.68682 12872 ft 382 kts 17°
2026-05-06 04:02 35.26412 140.69783 12464 ft 364 kts 18°
2026-05-06 04:03 35.28771 140.70633 12137 ft 343 kts
2026-05-06 04:03 35.31069 140.71040 11818 ft 326 kts
2026-05-06 04:03 35.33250 140.71317 11466 ft 314 kts
2026-05-06 04:03 35.35404 140.71545 11038 ft 309 kts
2026-05-06 04:04 35.37552 140.71737 10684 ft 309 kts
2026-05-06 04:04 35.39683 140.71880 10402 ft 303 kts 358°
2026-05-06 04:04 35.41780 140.71603 10083 ft 301 kts 349°
2026-05-06 04:04 35.43816 140.71121 9993 ft 294 kts 348°
2026-05-06 04:05 35.45820 140.70613 10008 ft 297 kts 348°
2026-05-06 04:05 35.47869 140.70085 10008 ft 303 kts 347°
2026-05-06 04:05 35.49954 140.69540 10009 ft 307 kts 347°
2026-05-06 04:05 35.52050 140.68986 10004 ft 309 kts 347°
2026-05-06 04:06 35.54146 140.68429 9985 ft 307 kts 347°
2026-05-06 04:06 35.56242 140.67868 9989 ft 308 kts 347°
2026-05-06 04:06 35.58336 140.67307 9992 ft 309 kts 347°
2026-05-06 04:06 35.60432 140.66740 9984 ft 307 kts 347°
2026-05-06 04:07 35.62504 140.66144 9973 ft 303 kts 346°
2026-05-06 04:07 35.64549 140.65544 9873 ft 300 kts 346°
2026-05-06 04:07 35.66557 140.64955 9552 ft 301 kts 346°
2026-05-06 04:07 35.68583 140.64362 9275 ft 297 kts 346°
2026-05-06 04:08 35.70566 140.63784 8856 ft 289 kts 345°
2026-05-06 04:08 35.72514 140.63216 8293 ft 288 kts 345°
2026-05-06 04:08 35.74455 140.62651 7750 ft 286 kts 344°
2026-05-06 04:08 35.76383 140.62090 7202 ft 285 kts 343°
2026-05-06 04:09 35.78326 140.61524 6889 ft 284 kts 343°
2026-05-06 04:09 35.80216 140.60976 6481 ft 277 kts 342°
2026-05-06 04:09 35.82095 140.60426 6209 ft 280 kts 343°
2026-05-06 04:09 35.83893 140.59615 6083 ft 270 kts 321°
2026-05-06 04:10 35.85199 140.58045 6089 ft 257 kts 304°
2026-05-06 04:10 35.86293 140.56364 6068 ft 245 kts 304°
2026-05-06 04:10 35.87332 140.54772 6053 ft 231 kts 304°
2026-05-06 04:10 35.88320 140.53256 6076 ft 226 kts 304°
2026-05-06 04:11 35.89304 140.51748 5922 ft 227 kts 304°
2026-05-06 04:11 35.90285 140.50248 5555 ft 223 kts 304°
2026-05-06 04:11 35.91257 140.48760 5036 ft 222 kts 306°
2026-05-06 04:11 35.92206 140.47313 4865 ft 215 kts 305°
2026-05-06 04:12 35.93152 140.45869 4698 ft 218 kts 305°
2026-05-06 04:12 35.94115 140.44402 4582 ft 222 kts 305°
2026-05-06 04:12 35.95091 140.42912 4440 ft 224 kts 306°
2026-05-06 04:12 35.96071 140.41416 4321 ft 223 kts 305°
2026-05-06 04:13 35.97010 140.39892 4180 ft 224 kts 303°
2026-05-06 04:13 35.97940 140.38346 4067 ft 223 kts 303°
2026-05-06 04:13 35.98864 140.36809 3917 ft 223 kts 303°
2026-05-06 04:13 35.99784 140.35279 3757 ft 221 kts 303°
2026-05-06 04:14 36.00578 140.33694 3590 ft 212 kts 284°
2026-05-06 04:14 36.00610 140.31968 3452 ft 194 kts 251°
2026-05-06 04:14 36.00058 140.30543 3392 ft 179 kts 234°
2026-05-06 04:14 35.99326 140.29287 3286 ft 184 kts 232°
2026-05-06 04:15 35.98564 140.28017 3168 ft 183 kts 231°
2026-05-06 04:15 35.97670 140.26970 3025 ft 177 kts 202°
2026-05-06 04:15 35.96478 140.26912 2929 ft 176 kts 164°
2026-05-06 04:15 35.95344 140.27479 2849 ft 177 kts 160°
2026-05-06 04:16 35.94216 140.28080 2703 ft 176 kts 158°
2026-05-06 04:16 35.93115 140.28723 2527 ft 174 kts 155°
2026-05-06 04:16 35.92088 140.29423 2367 ft 163 kts 153°
2026-05-06 04:16 35.91133 140.30106 2267 ft 156 kts 152°
2026-05-06 04:17 35.90175 140.30801 2138 ft 161 kts 152°
2026-05-06 04:17 35.89230 140.31488 2068 ft 153 kts 152°
2026-05-06 04:17 35.88321 140.32150 1932 ft 155 kts 153°
2026-05-06 04:17 35.87397 140.32821 1737 ft 154 kts 152°
2026-05-06 04:18 35.86479 140.33488 1510 ft 152 kts 153°
2026-05-06 04:18 35.85573 140.34145 1327 ft 154 kts 153°
2026-05-06 04:18 35.84663 140.34807 1069 ft 149 kts 152°
2026-05-06 04:18 35.83783 140.35443 903 ft 151 kts 152°
2026-05-06 04:19 35.82885 140.36096 747 ft 148 kts 152°
2026-05-06 04:19 35.81991 140.36743 511 ft 149 kts 152°
2026-05-06 04:19 35.81103 140.37385 325 ft 144 kts 151°
2026-05-06 04:19 35.80254 140.37999 160 ft 139 kts 150°
2026-05-06 04:20 35.79522 140.38528 149 ft 103 kts 148°
2026-05-06 04:20 35.79065 140.38858 150 ft 50 kts 149°
2026-05-06 04:20 35.78854 140.38937 147 ft 26 kts 173°
2026-05-06 04:20 35.78717 140.38954 149 ft 19 kts 175°
2026-05-06 04:21 35.78610 140.38966 149 ft 11 kts 173°
2026-05-06 04:21 35.78542 140.39008 149 ft 11 kts 139°
2026-05-06 04:21 35.78485 140.39072 149 ft 11 kts 137°
2026-05-06 04:21 35.78419 140.39122 148 ft 12 kts 162°
2026-05-06 04:22 35.78339 140.39147 148 ft 12 kts 166°
2026-05-06 04:22 35.78259 140.39173 148 ft 12 kts 165°
2026-05-06 04:22 35.78178 140.39195 148 ft 12 kts 180°
2026-05-06 04:23 35.78036 140.39132 148 ft 12 kts 153°
2026-05-06 04:23 35.77977 140.39169 148 ft 8 kts 161°
2026-05-06 04:23 35.77930 140.39152 148 ft 8 kts 223°
2026-05-06 04:23 35.77889 140.39082 148 ft 12 kts 240°
2026-05-06 04:24 35.77847 140.38996 148 ft 12 kts 239°
2026-05-06 04:24 35.77819 140.38938 148 ft 3 kts 239°
2026-05-06 04:24 35.77809 140.38916 148 ft 3 kts 239°
2026-05-06 04:24 35.77796 140.38890 148 ft 4 kts 239°
2026-05-06 04:25 35.77780 140.38857 148 ft 5 kts 238°
2026-05-06 04:25 35.77751 140.38833 148 ft 6 kts 192°
2026-05-06 04:25 35.77711 140.38844 148 ft 6 kts 156°
2026-05-06 04:25 35.77674 140.38868 148 ft 6 kts 150°
2026-05-06 04:26 35.77642 140.38890 148 ft 3 kts 150°
2026-05-06 04:26 35.77620 140.38893 148 ft 4 kts 191°
2026-05-06 04:26 35.77593 140.38871 148 ft 5 kts 225°
2026-05-06 04:26 35.77576 140.38841 148 ft 3 kts 238°
2026-05-06 04:27 35.77568 140.38824 148 ft 2 kts 238°
2026-05-06 04:27 35.77563 140.38814 148 ft 0 kts 239°
2026-05-06 04:29 35.77569 140.38827 148 ft 0 kts 239°
2026-05-06 04:29 35.77569 140.38828 148 ft 0 kts 239°